Regional Weather Roundup
Issued by NWS Newport/Morehead, NC

Current Version | Previous Version | Graphics & Text | Print | Product List | Glossary Off
Versions: 1 2 3 4 5 6 7 8 9 10 11 12 13 14 15 16 17 18 19 20 21 22 23 24 25 26 27 28 29 30 31 32 33 34 35 36 37 38 39 40 41 42 43 44 45 46 47 48 49 50

000
ASUS42 KMHX 171125
RWRMHX
WEATHER ROUNDUP FOR EASTERN NORTH CAROLINA
NATIONAL WEATHER SERVICE NEWPORT/MOREHEAD CITY NC
600 AM EST SAT FEB 17 2018

NOTE: "FAIR" INDICATES FEW OR NO CLOUDS BELOW 12,000 FEET
WITH NO SIGNIFICANT WEATHER AND/OR OBSTRUCTIONS TO VISIBILITY

NCZ015>017-031-032-045>047-102-103-171200-
NORTH COAST

CITY           SKY/WX    TMP DP  RH WIND       PRES   REMARKS
EDENTON        CLOUDY    44  35  71 NE9       30.33R
ELIZABETH CITY FAIR      42  36  79 N12       30.32R
KITTY HAWK     CLOUDY    43  41  93 NE8G17    30.28R
MANTEO         CLOUDY    44  37  76 NE15      30.30R

$$

NCZ045>047-081-094-103-104-171200-
CENTRAL COAST

CITY           SKY/WX    TMP DP  RH WIND       PRES   REMARKS
FRISCO         CLOUDY    50  42  74 NE12G24   30.26R

$$

NCZ095-097-098-100-101-171200-
SOUTHERN COAST

CITY           SKY/WX    TMP DP  RH WIND       PRES   REMARKS
BEAUFORT       CLOUDY    50  40  68 NE12G21   30.25R
CEDAR ISLAND   NOT AVBL
JACKSONVILLE   CLOUDY    52  41  66 NE15G21   30.25R
PINEY ISLAND   NOT AVBL
WILMINGTON     CLOUDY    53  48  83 E12       30.24R


$$

NCZ011>013-027>030-043-044-078>080-089-090>093-098-171200-
COASTAL PLAIN

CITY           SKY/WX    TMP DP  RH WIND       PRES   REMARKS
AHOSKIE        CLOUDY    41  32  71 NE8       30.33R
CLINTON        CLOUDY    53  49  85 E13       30.25R
ELIZABETHTOWN  NOT AVBL
GOLDSBORO      CLOUDY    50  39  66 NE9       30.25R
GREENVILLE     MOCLDY    46  37  71 NE12      30.30R
HAVELOCK       CLOUDY    51  44  77 NE14      30.27R
KENANSVILLE    CLOUDY    52  45  76 E6        30.26R
KINSTON        CLOUDY    50  40  70 NE9       30.28R
NEW BERN       CLOUDY    47  41  80 NE13      30.28R
RICHLANDS      CLOUDY    51  46  83 NE12      30.26R
ROCKY MOUNT    CLOUDY    45  34  65 NE10      30.30R
WASHINGTON     CLOUDY    45  38  76 NE9       30.30R
WHITEVILLE     NOT AVBL

$$

AMZ130-135-150-152-154-156-158-170-250-252-270-ANZ085-086-088-633-658-670-171200-
MARINE OBSERVATIONS

STATION/POSITION TIME  TEMP    WIND        PRES    WAVE   SWELL
                       AIR SEA DIR/SP/G            HT/PER HT/PER
                 (UTC) (F)     (DEG/KT/KT) (MB)    (FT/S) (FT/S)
CHESAPEAKE LIGHT NOT AVBL
64 E VA BEACH    1050   47 50   30/ 17/ 21 1025.7    6/ 6   2/10
DUCK             1100   44 44   20/ 18/ 21 1025.7
2 E DUCK         1100      45                N/A     5/ 5   2/11
OREGON INLET     1100   45 55   10/ 11/ 16 1025.3
13E OREGON INLT  1048      46                N/A     5/ 5   2/11
HATTERAS CG      1100   50 59   30/ 17/ 24 1024.4
DIAMOND BUOY     1110   55 70   20/ 19/ 25 1024.5
CAPE LOOKOUT     1100           30/ 21/ 25 1024.5
BEAUFORT LAB     1100   50 55   30/ 12/ 17 1024.5
30 SE NEW RVR IN 1008   56 68   70/ 19/ 25 1022.7
30 SE NEW RVR IN 1100      68                N/A     8/ 6   2/11
27 SE WRIGHTSVLE 1008   58 66   70/ 25/ 33 1023.0
5 SE WRIGHTSVLE  1108   53 52   70/ 17/ 23 1022.9
225 S CAPE HAT   1050   72 72  260/ 12/ 14 1020.3    7/ 8   7/ 8
41 SE CHARLESTON 1110   67 68   50/ 17/ 21 1020.5

$$




USA.gov is the U.S. government's official web portal to all federal, state and local government web resources and services.